Tracking 30072 objects as of 14-Jan-2025
HD Live streaming from Space Station
objects crossing your sky now

THOR ABLESTAR DEB

Track THOR ABLESTAR DEB now!
10-day predictions


NORAD ID: 410
Int'l Code: 1961-015EK
Perigee: 971.0 km
Apogee: 996.1 km
Inclination: 66.7 °
Period: 104.6 minutes
Semi major axis: 7354 km
RCS: 0.1102 m2 (medium)
Launch date: June 29, 1961
Source: United States (US)
Launch site: AIR FORCE EASTERN TEST RANGE (AFETR)

Note: This is SATELLITE DEBRIS
Your satellite tracking list
Your tracking list is empty




NASA's NSSDC Master Catalog

Two Line Element Set (TLE):
1 00410U 61015EK  25013.95274321  .00000060  00000-0  13778-3 0  9997
2 00410  66.6910 201.7589 0017109 328.4867 183.0823 13.76479514188608
Source of the keplerian elements: AFSPC